Location: Shenandoah County Park
(38.9356°N, 78.4524°W)
Time: 09:32:54
(UTC-05:00)

Vanguard 2 Rocket - Visible Passes

Search period start: 27 January 2023 00:00
Search period end: 06 February 2023 00:00
Orbit: 556 x 3318 km, 32.9° (Epoch: 26 January)

Date Brightness Start Highest point End Pass type
(mag) Time Alt. Az. Time Alt. Az. Time Alt. Az.
27 Jan 10.0 18:51:55 10° WSW 18:57:41 20° SSW 19:05:48 10° SSE visible
28 Jan 9.7 17:51:28 10° WSW 17:56:51 24° SSW 18:04:46 10° SSE visible
29 Jan 10.5 19:07:29 10° SW 19:10:18 12° SSW 19:13:32 10° S visible
30 Jan 10.1 18:05:36 10° SW 18:09:26 15° SSW 18:14:17 10° S visible
